Beaufort, NC

11:18 AM EDT on October 18, 2017 (GMT -0400)
Smith

Weather History for KMRH - February, 2014

Change the Weather History Date:

Friday, February 28, 2014

  Actual Average Record
Temperature  
Mean Temperature 39 °F -  
Max Temperature 43 °F 59 °F 76 °F (1954)
Min Temperature 35 °F 36 °F 20 °F (1968)
Degree Days  
Heating Degree Days 26    
Moisture  
Dew Point 27 °F    
Average Humidity 67    
Maximum Humidity 82    
Minimum Humidity 53    
Precipitation  
Precipitation 0.00 in - - ()
Sea Level Pressure  
Sea Level Pressure 30.21 in    
Wind  
Wind Speed 15 mph (NNE)    
Max Wind Speed 23 mph    
Max Gust Speed 32 mph    
Visibility 10 miles    
Events      
Averages and records for this station are not official NWS values.
T = Trace of Precipitation, MM = Missing Value Source: NWS Daily Summary

Daily Weather History Graph

Daily Weather History Graph

Search for Another Location

Airport or City:

Trip Planner

Search our weather history database for the weather conditions in past years. The results will help you decide how hot, cold, wet, or windy it might be!

Date:

Astronomy

Feb. 28, 2014 Rise Set
Actual Time 6:37 AM EST 6:01 PM EST
Civil Twilight 6:11 AM EST 6:27 PM EST
Nautical Twilight 5:42 AM EST 6:56 PM EST
Astronomical Twilight 5:13 AM EST 7:25 PM EST
Moon 5:49 AM EST (2/28) 5:35 PM EST (2/28)
Length of Visible Light 12h 15m
Length of Day
11h 24m
Waning Crescent, 1% of the Moon is Illuminated
Feb 28
Waning Crescent
Mar 1
New
Mar 8
First Quarter
Mar 16
Full
Mar 23
Last Quarter

Hourly Weather History & Observations

Time (EST) Temp. Windchill Dew Point Humidity Pressure Visibility Wind Dir Wind Speed Gust Speed Precip Events Conditions
12:58 AM 43.0 °F 38.2 °F 37.9 °F 82% 29.99 in 9.0 mi NNW 8.1 mph - N/A   Clear
1:58 AM 41.0 °F 34.3 °F 28.9 °F 62% 30.02 in 10.0 mi North 11.5 mph - N/A   Clear
2:58 AM 39.0 °F 29.9 °F 32.0 °F 76% 30.02 in 10.0 mi NNE 17.3 mph 24.2 mph N/A   Clear
3:58 AM 37.0 °F 28.9 °F 30.0 °F 76% 30.06 in 10.0 mi NE 12.7 mph 19.6 mph N/A   Clear
4:58 AM 37.0 °F 27.7 °F 27.0 °F 67% 30.10 in 10.0 mi NNE 16.1 mph 25.3 mph N/A   Clear
5:58 AM 36.0 °F 27.1 °F 26.1 °F 67% 30.14 in 10.0 mi NE 13.8 mph 20.7 mph N/A   Clear
6:58 AM 36.0 °F 27.1 °F 28.0 °F 73% 30.18 in 10.0 mi NNE 13.8 mph 23.0 mph N/A   Partly Cloudy
7:13 AM 36.0 °F 26.3 °F 28.0 °F 73% 30.18 in 9.0 mi NNE 16.1 mph 25.3 mph N/A   Mostly Cloudy
7:58 AM 37.0 °F 27.7 °F 28.9 °F 73% 30.21 in 9.0 mi NNE 16.1 mph 25.3 mph N/A   Overcast
8:58 AM 37.9 °F 27.3 °F 28.0 °F 68% 30.23 in 9.0 mi NNE 21.9 mph 31.1 mph N/A   Overcast
9:27 AM 39.0 °F 28.5 °F 28.0 °F 65% 30.23 in 10.0 mi NNE 23.0 mph 32.2 mph N/A   Scattered Clouds
9:58 AM 39.9 °F 30.2 °F 28.0 °F 63% 30.24 in 9.0 mi NNE 20.7 mph 32.2 mph N/A   Clear
10:58 AM 39.9 °F 31.4 °F 27.0 °F 60% 30.26 in 10.0 mi NE 16.1 mph 31.1 mph N/A   Mostly Cloudy
11:58 AM 39.9 °F 30.2 °F 26.1 °F 58% 30.27 in 10.0 mi NNE 20.7 mph 32.2 mph N/A   Overcast
12:58 PM 39.0 °F 30.6 °F 25.0 °F 57% 30.27 in 10.0 mi NNE 15.0 mph 27.6 mph N/A   Overcast
1:58 PM 39.0 °F 29.3 °F 25.0 °F 57% 30.25 in 10.0 mi NNE 19.6 mph 27.6 mph N/A   Overcast
2:58 PM 39.9 °F 30.5 °F 24.1 °F 53% 30.25 in 10.0 mi NNE 19.6 mph 27.6 mph N/A   Overcast
3:58 PM 37.9 °F 28.5 °F 25.0 °F 60% 30.26 in 10.0 mi NNE 17.3 mph 27.6 mph N/A   Overcast
4:53 PM 37.4 °F 28.2 °F 24.8 °F 60% 30.26 in 10.0 mi NE 16.1 mph 26.5 mph N/A   Overcast
4:58 PM 37.0 °F 28.9 °F 25.0 °F 62% 30.26 in 10.0 mi NNE 12.7 mph 26.5 mph N/A   Overcast
5:58 PM 36.0 °F 26.0 °F 24.1 °F 62% 30.27 in 10.0 mi NNE 17.3 mph 23.0 mph N/A   Overcast
6:58 PM 35.1 °F 25.2 °F 26.1 °F 70% 30.28 in 10.0 mi NNE 16.1 mph - N/A   Overcast
7:58 PM 36.0 °F 27.1 °F 27.0 °F 70% 30.29 in 10.0 mi NNE 13.8 mph - N/A   Overcast
8:58 PM 36.0 °F 26.3 °F 27.0 °F 70% 30.29 in 10.0 mi NNE 16.1 mph - N/A   Overcast
9:58 PM 36.0 °F 26.3 °F 27.0 °F 70% 30.29 in 10.0 mi NNE 16.1 mph - N/A   Overcast
10:28 PM 36.0 °F 26.7 °F 27.0 °F 70% 30.28 in 10.0 mi NNE 15.0 mph 24.2 mph N/A   Overcast
10:58 PM 36.0 °F 27.1 °F 28.0 °F 73% 30.27 in 10.0 mi NNE 13.8 mph 23.0 mph N/A   Overcast
11:58 PM 36.0 °F 28.5 °F 28.9 °F 76% 30.26 in 10.0 mi NNE 10.4 mph - N/A   Overcast